This demonstration page uses our WeatherBlox Daily Observations layout. Learn more.

Left ArrowRight Arrow

39.92423, -83.80882

Hourly Observations for November 29, 2015

Temp ( °F °C ) Dew Point ( °F °C ) Humidity (%) Winds ( mph kmh ) Pressure ( in mb ) Visibility ( mi km ) Precip ( " mm )
12:56 am 00:56 Cloudy with Mist and Fog 38 3.3 38 3.3 100 100 NNE 12 19 30.27 1025 5 8.0467 0 0
1:56 am 01:56 Cloudy 37 2.7 37 2.7 100 100 NNE 12 19 30.27 1025 10 16.0934 0 0
2:56 am 02:56 Cloudy 38 3.3 37 2.7 96 96 NNE 9 15 30.27 1025 10 16.0934 0 0
3:46 am 03:46 Cloudy 37 3 37 3 100 100 NNE 12 19 30.3 1026 10 16.0934 0 0
3:56 am 03:56 Cloudy 38 3.3 37 2.7 96 96 NNE 10 17 30.27 1025 10 16.0934 0 0
4:56 am 04:56 Cloudy 37 2.7 36 2.2 97 97 NNE 9 15 30.27 1025 10 16.0934 0 0
5:47 am 05:47 Cloudy 37 3 36 2 93 93 NNE 12 19 30.33 1027 10 16.0934 0 0
5:56 am 05:56 Cloudy 37 2.7 36 2.2 97 97 NNE 9 15 30.28 1025 10 16.0934 0 0
6:56 am 06:56 Cloudy 37 2.7 35 1.6 93 93 NE 14 22 30.28 1025 10 16.0934 0 0
7:03 am 07:03 Cloudy 36 2 36 2 100 100 NNE 13 20 30.33 1027 10 16.0934 0 0
7:56 am 07:56 Cloudy 36 2.2 35 1.6 96 96 NE 14 22 30.32 1027 10 16.0934 0 0
8:56 am 08:56 Cloudy 37 2.7 35 1.6 93 93 NNE 13 20 30.32 1027 10 16.0934 0 0
9:56 am 09:56 Cloudy 37 2.7 35 1.6 93 93 NE 12 19 30.34 1027 10 16.0934 0 0
10:56 am 10:56 Cloudy 38 3.3 36 2.2 93 93 NE 9 15 30.34 1028 10 16.0934 0 0
11:20 am 11:20 Cloudy 39 4 36 2 87 87 NE 10 17 30.36 1028 10 16.0934 0 0
11:56 am 11:56 Cloudy 41 5 37 2.7 85 85 ENE 7 11 30.32 1027 10 16.0934 0 0
12:26 pm 12:26 Partly Cloudy 43 6 36 2 76 76 ENE 10 17 30.3 1026 10 16.0934 0 0
12:56 pm 12:56 Sunny 43 6.1 36 2.2 76 76 NE 8 13 30.28 1025 10 16.0934 0 0
1:56 pm 13:56 Sunny 42 5.5 36 2.2 80 80 ENE 9 15 30.26 1025 10 16.0934 0 0
2:56 pm 14:56 Sunny 42 5.5 35 1.6 76 76 NE 9 15 30.25 1024 10 16.0934 0 0
3:56 pm 15:56 Sunny 41 5 36 2.2 82 82 NE 10 17 30.25 1024 10 16.0934 0 0
4:56 pm 16:56 Sunny 40 4.4 35 1.6 82 82 NE 8 13 30.27 1025 10 16.0934 0 0
5:56 pm 17:56 Clear 39 3.8 35 1.6 86 86 NE 9 15 30.28 1025 10 16.0934 0 0
6:56 pm 18:56 Clear 38 3.3 34 1.1 86 86 NE 10 17 30.28 1025 10 16.0934 0 0
7:56 pm 19:56 Clear 38 3.3 35 1.6 89 89 NE 12 19 30.27 1025 10 16.0934 0 0
8:56 pm 20:56 Clear 37 2.7 35 1.6 93 93 NE 9 15 30.28 1026 10 16.0934 0 0
9:56 pm 21:56 Clear 36 2.2 34 1.1 93 93 NE 8 13 30.29 1026 10 16.0934 0 0
10:56 pm 22:56 Clear 36 2.2 33 0.5 89 89 ENE 9 15 30.27 1025 10 16.0934 0 0
11:56 pm 23:56 Clear 36 2.2 33 0.5 89 89 ENE 10 17 30.26 1025 10 16.0934 0 0

Powered by AerisWeather